Location: Norton
(51.3000°N, 0.8167°E)
Time: 09:58:43
(UTC+00:00)

IRS-1C Rocket - Pass Details

Date: 03 March 2021
Orbit: 800 x 806 km, 99.0° (Epoch: 12 April)

Event Time Altitude Azimuth Distance (km) Brightness Sun altitude
Rises 18:06:00 0° 158° (SSE) 3,305 7.1 -4.7°
Reaches altitude 10° 18:08:19 10° 158° (SSE) 2,380 6.4 -5.1°
Maximum altitude 18:13:35 80° 72° (ENE) 824 4.1 -5.9°
Drops below altitude 10° 18:18:54 10° 346° (NNW) 2,399 6.7 -6.7°
Sets 18:21:14 0° 346° (NNW) 3,335 7.5 -7.1°
